sat.trackr.live / text

‹ back to catalog

UNKNOWN

NORAD 87517

UNKNOWN UNKNOWN UNKNOWN

§ Identity

Operator
Country
Launch date
Launch site
Launch vehicle
Mass (kg)
RCS (m²)

External: N2YO · Heavens-Above

§ Orbital elements

Epoch: 2026-05-23T10:14:07.133280Z

Period
105.69 min
Inclination
65.8227°
Eccentricity
0.0670457
Mean motion
13.62523759 rev/d
Perigee alt
530.1 km
Apogee alt
1,523.0 km
Semi-major
7,404.7 km
B*
7.0750e-4
RAAN
198.3872°
Arg perigee
229.4075°
Mean anomaly
149.2668°
Rev number
61,493

§ Raw data

UNKNOWN1 87517U          26143.42647145  .00002519  00000+0  70750-3 0  99952 87517  65.8227 198.3872 0670457 229.4075 149.2668 13.62523759614938

JSON: /api/v1/satellites/87517 · /tle

For live sub-satellite position, see the globe view (requires WebGL).

§ Visibility from observer

Set your observer location to see the next 7 days of passes ≥ 10°. The values pass through the URL so the page stays shareable.

No JS? Fill the form by hand. The geolocation button needs JavaScript.